Regional Weather Roundup
Issued by NWS Charleston, WV

Home | Current Version | Previous Version | Text Only | Print | Product List | Glossary Off
Versions: 1 2 3 4 5 6 7 8 9 10 11 12 13 14 15 16 17 18 19 20 21 22 23 24 25 26 27 28 29 30 31 32 33 34 35 36 37 38 39 40 41 42 43 44 45 46 47 48 49 50

000
ASUS41 KRLX 220910
RWRRLX
West Virginia Regional Weather Roundup
National Weather Service Charleston WV
400 AM EST MON DEC 22 2014

Note: "fair" indicates few or no clouds below 12,000 feet with no
significant weather and/or obstructions to visibility.

WVZ003-221000-
Northern Panhandle of West Virginia

CITY           SKY/WX    TMP DP  RH WIND       PRES   REMARKS
WHEELING       PTCLDY    24  20  84 E5        30.11S
$$

WVZ009-221000-
Northwest West Virginia

CITY           SKY/WX    TMP DP  RH WIND       PRES   REMARKS
PARKERSBURG    CLEAR     27  23  85 CALM      30.12F
$$

WVZ006-221000-
Western West Virginia

CITY           SKY/WX    TMP DP  RH WIND       PRES   REMARKS
HUNTINGTON     CLOUDY    34  28  79 E3        30.05F
$$

WVZ015-221000-
West Central West Virginia

CITY           SKY/WX    TMP DP  RH WIND       PRES   REMARKS
CHARLESTON     PTCLDY    31  27  85 CALM      30.08F
$$

WVZ022-031-221000-
North Central West Virginia

CITY           SKY/WX    TMP DP  RH WIND       PRES   REMARKS
CLARKSBURG     CLEAR     23  21  92 CALM      30.11F
MORGANTOWN     CLEAR     33  22  63 E5        30.11F
$$

WVZ025-035-042-045-221000-
Southern West Virginia

CITY           SKY/WX    TMP DP  RH WIND       PRES   REMARKS
BECKLEY        MOCLDY    35  30  82 SE12      30.08F
LOGAN          CLOUDY    39  34  81 CALM      30.07F
BLUEFIELD      CLOUDY    37  32  82 VRB5      30.09F
LEWISBURG      CLOUDY    37  30  76 E3        30.14S
$$

WVZ047-221000-
Northern Mountains of West Virginia

CITY           SKY/WX    TMP DP  RH WIND       PRES   REMARKS
ELKINS         CLEAR     20  19  96 CALM      30.10F
$$

WVZ052-221000-
Eastern Panhandle of West Virginia

CITY           SKY/WX    TMP DP  RH WIND       PRES   REMARKS
MARTINSBURG    MOCLDY    24  17  74 CALM      30.27F
PETERSBURG     MOCLDY    29  28  95 CALM      30.22F FOG
$$



USA.gov is the U.S. government's official web portal to all federal, state and local government web resources and services.